SCP
0 1 1 2 2 1 1 0 0 0 0 0 0 1 1 2 2 1 1 2 2 1 1 1 1 1 1 1 1 1 1 1 1 0 1 1 1 1 1 0 0 0 0 0 0 1 1 1 1
0 1 1 1 1 1 0 0 0 0 0 0 0 1 1 2 2 1 1 2 2 1 1 1 1 1 1 1 1 1 1 0 0 0 0 1 1 1 1 0 0 0 0 0 1 1 1 1 1
0 1 1 1 1 0 0 0 0 0 0 1 1 1 1 1 1 1 2 2 2 1 1 1 1 1 1 1 1 1 0 0 0 0 0 1 1 1 1 0 0 0 0 1 1 1 1 1 1
0 0 1 0 0 0 0 0 0 0 0 1 1 1 1 1 1 2 1 2 2 1 1 1 1 1 1 1 1 0 0 0 0 0 0 0 1 1 0 0 0 0 1 1 1 1 1 1 1
1 0 0 0 0 0 0 0 0 0 0 1 1 1 1 1 1 2 1 2 2 2 1 1 1 1 1 0 0 0 0 0 0 0 0 0 0 0 0 0 0 0 1 1 1 1 1 0 0
1 1 0 0 0 0 0 0 1 1 1 1 1 1 1 2 2 2 1 2 3 2 1 1 1 1 0 0 0 0 0 0 0 0 0 0 0 0 0 1 1 1 1 1 1 1 1 0 0
1 1 0 0 0 0 0 0 1 1 1 1 1 1 2 2 2 2 2 2 2 2 1 1 1 1 1 0 0 0 0 0 0 0 0 0 0 0 1 1 1 1 1 1 1 1 1 1 0
1 1 1 0 0 0 0 0 0 1 1 1 1 2 2 2 2 2 2 2 2 2 1 1 1 1 1 0 0 0 0 0 0 0 0 0 0 1 1 1 1 1 1 1 1 1 1 1 0
0 1 1 0 0 0 0 0 0 1 1 1 1 2 2 2 2 2 2 2 3 2 2 1 1 1 1 0 0 0 0 0 0 0 0 0 0 0 1 1 1 1 1 1 1 1 1 1 0
0 0 0 0 0 0 0 0 0 1 1 1 1 1 2 2 2 2 2 2 3 3 3 2 1 1 1 1 1 0 0 0 0 0 0 0 0 0 1 1 1 1 1 1 1 1 1 1 0
0 0 0 0 0 0 0 0 0 1 1 1 1 2 2 3 2 2 2 2 3 4 3 2 2 1 1 1 1 1 1 1 1 1 1 1 1 1 1 1 1 1 1 1 1 1 1 0 0
0 0 0 0 0 0 0 0 1 1 1 2 2 2 2 2 2 2 2 2 3 4 4 3 2 2 2 2 1 1 1 1 1 1 1 1 1 1 1 1 0 0 0 0 1 1 1 1 0
0 0 0 0 0 0 0 0 1 1 2 2 2 2 2 2 2 2 2 3 3 4 4 4 3 3 3 3 2 1 1 1 1 1 1 1 1 1 1 1 1 1 1 1 1 1 1 1 1
0 0 0 0 0 0 0 0 1 1 2 2 2 2 2 2 2 2 2 3 4 4 4 4 4 3 3 3 2 2 2 2 2 1 1 1 1 1 1 1 1 1 1 1 1 1 1 1 1
0 0 0 0 0 0 0 0 1 2 2 2 2 2 2 2 2 2 3 4 5 5 5 4 4 4 4 3 3 2 2 2 2 2 2 1 1 1 1 1 1 1 2 2 1 1 1 1 1
0 0 0 0 0 0 0 1 1 2 2 2 2 2 2 3 3 3 4 5 6 6 5 4 4 5 5 5 4 3 3 3 3 3 3 2 2 1 1 1 1 1 2 2 2 1 1 1 1
0 0 0 0 0 0 0 1 2 2 2 2 2 2 3 3 4 4 6 7 8 8 7 5 4 5 5 5 4 4 4 4 4 4 3 2 2 2 1 1 1 2 1 1 1 1 1 1 1
0 0 0 0 0 0 0 1 1 1 1 2 2 3 3 4 5 6 7 8 9 8 7 5 5 5 5 4 4 4 5 5 5 5 4 3 3 2 2 1 2 1 1 2 2 2 1 1 1
0 0 0 0 0 0 0 1 1 1 1 2 3 3 3 4 6 7 7 7 7 7 6 5 5 5 4 4 4 5 5 6 6 5 5 4 3 3 2 2 2 1 2 2 2 2 2 1 1
0 0 0 0 0 0 0 1 1 1 1 2 2 3 3 5 6 7 6 5 6 6 5 5 4 4 4 4 4 4 5 6 6 5 5 4 4 3 2 2 2 2 2 2 2 2 2 2 1
0 0 0 0 0 0 0 1 1 1 1 1 2 2 3 4 6 6 6 5 5 5 4 4 4 4 4 4 4 4 4 4 4 4 4 4 3 3 3 3 2 2 2 2 2 2 2 2 2
0 0 0 1 0 0 0 1 1 1 1 1 1 2 3 4 5 6 6 5 5 4 4 4 4 4 4 4 4 4 4 3 3 4 4 4 3 3 2 3 3 2 2 2 2 2 2 2 2
0 0 0 0 0 0 0 0 1 2 2 1 1 2 3 4 4 5 6 6 4 4 4 4 4 4 4 4 4 4 4 4 4 4 4 4 4 3 2 2 3 3 2 2 2 2 2 2 2
0 0 0 1 1 0 0 1 2 3 3 2 2 2 3 4 5 6 7 6 5 4 4 4 5 5 5 4 4 4 5 5 5 5 5 5 5 3 3 2 3 3 3 2 2 2 2 2 2
0 0 1 1 1 1 1 1 2 3 3 2 2 2 3 4 5 7 8 7 5 4 4 5 6 6 6 5 5 5 5 6 6 6 6 7 6 5 4 3 3 3 3 3 3 2 2 2 2
0 0 1 1 1 1 1 2 3 3 2 2 2 3 4 4 6 7 7 6 5 5 6 7 8 8 7 6 6 6 6 7 7 6 6 7 8 7 5 4 4 3 3 3 3 2 2 2 2
0 0 0 0 0 0 1 2 2 2 2 2 3 3 3 4 6 7 6 5 5 5 7 8 9 10 8 7 7 7 8 8 7 6 5 6 7 7 6 5 4 3 2 2 2 2 2 2 2
0 0 0 0 0 0 1 1 2 2 2 2 2 2 3 5 7 7 6 5 4 5 7 9 10 11 9 8 7 7 8 8 7 6 5 5 6 6 6 5 4 3 3 3 2 2 2 2 2
1 1 0 0 1 0 1 2 3 2 1 1 2 2 3 6 8 7 6 5 4 4 6 9 10 10 9 8 7 6 7 7 6 5 4 4 4 5 5 4 4 4 4 3 3 2 2 2 2
1 1 1 1 1 1 1 3 3 2 1 2 3 4 5 6 7 7 6 4 4 4 6 8 10 9 8 7 7 6 6 6 6 5 4 4 4 4 4 4 4 5 4 4 3 2 2 2 2
Wind_Speed
10 12 11 8 5 4 2 5 10 11 13 12 11 13 17 15 12 13 14 19 20 18 16 15 15 15 15 14 14 14 14 14 14 14 14 14 15 15 15 15 15 15 15 15 15 14 14 13 13
11 14 11 6 4 3 2 7 11 12 12 10 11 15 17 16 16 15 16 18 20 19 16 15 16 15 15 14 14 13 13 14 14 14 13 14 14 14 15 14 14 14 15 15 14 14 13 13 12
14 17 9 6 6 3 4 8 10 11 9 10 12 14 13 12 14 14 17 19 19 18 17 16 16 15 14 14 13 13 13 13 14 13 13 13 13 14 14 14 14 14 14 14 14 13 13 12 10
9 9 7 6 5 2 6 8 10 10 9 10 11 12 12 10 13 17 18 18 18 19 18 16 16 15 14 14 13 13 13 13 13 13 13 13 13 13 14 13 13 14 14 13 13 13 12 11 9
10 7 8 7 7 5 7 8 9 8 8 10 14 15 12 13 18 19 17 17 18 19 17 16 16 15 14 14 14 13 12 13 12 12 12 12 12 12 13 13 13 13 13 13 13 12 11 10 7
7 7 7 7 4 7 7 6 7 8 9 11 15 15 11 14 16 16 16 15 17 19 17 15 16 15 14 14 13 12 12 12 12 12 12 12 12 12 13 13 13 13 12 12 12 11 10 8 6
9 9 9 8 4 6 7 5 6 7 9 8 11 13 11 14 14 14 13 13 17 18 17 14 14 13 14 14 13 12 12 12 12 12 12 12 12 13 13 13 12 12 12 11 11 10 9 7 5
10 9 12 9 5 5 8 7 7 8 8 8 8 10 13 16 15 14 13 12 13 15 15 14 13 12 12 11 13 13 12 12 12 11 11 11 12 13 14 12 11 12 11 10 9 9 8 6 4
12 9 10 8 2 4 8 8 8 8 8 7 8 12 19 20 17 15 12 12 11 12 12 13 14 12 12 12 12 12 12 11 11 9 11 10 7 9 9 12 11 11 10 9 8 8 7 6 5
9 8 11 5 1 5 7 7 7 7 9 10 13 18 21 19 17 16 14 14 13 13 12 10 12 11 11 10 9 7 7 8 6 6 7 4 4 5 9 11 10 10 9 9 8 7 7 6 4
11 11 11 5 2 3 6 7 6 6 6 10 16 20 20 19 16 15 14 14 13 12 10 10 9 7 8 7 7 5 4 5 4 6 5 3 4 5 7 5 6 5 7 5 6 6 4 4 2
13 12 11 5 2 2 3 4 6 7 6 9 13 19 19 18 16 15 13 13 12 11 10 10 9 6 5 6 6 5 5 4 4 4 4 3 2 4 4 3 4 4 3 2 2 2 2 2 1
14 12 8 7 5 4 4 4 4 7 10 14 15 16 18 17 16 14 13 12 12 11 10 9 9 7 5 4 4 5 5 5 5 4 3 4 3 3 4 2 2 2 2 2 1 1 2 1 1
11 11 10 9 7 6 6 6 6 7 10 14 16 16 16 16 16 15 13 12 12 12 11 10 9 8 6 4 2 3 4 4 5 4 4 3 3 4 3 2 1 1 2 2 1 2 2 0 1
12 11 11 10 10 8 8 9 8 8 11 12 14 15 15 15 15 15 14 12 13 12 11 11 10 9 7 6 4 4 4 5 4 4 5 3 4 5 3 2 2 2 2 3 2 2 1 1 1
13 13 12 12 12 11 11 9 8 9 11 11 12 14 14 14 15 14 14 12 12 12 11 11 11 11 8 6 4 3 4 5 4 4 4 3 4 5 3 2 2 2 2 2 2 1 1 1 1
14 14 14 13 14 12 11 8 6 9 11 12 12 13 14 14 15 14 15 14 12 11 11 10 9 11 9 7 5 3 3 4 4 4 4 4 4 4 3 2 2 2 1 1 2 2 1 1 1
14 15 15 14 14 14 12 9 9 10 12 12 12 11 12 14 14 14 14 14 12 12 11 10 9 9 8 6 4 2 3 3 3 4 4 5 4 4 3 3 3 2 1 1 2 2 1 0 1
14 12 13 12 11 12 12 11 11 13 12 12 12 12 12 12 15 15 14 14 13 12 12 11 10 9 7 6 6 5 4 3 3 4 6 6 5 5 3 2 3 2 1 2 2 2 2 2 1
16 15 13 9 9 10 10 11 11 12 13 12 13 13 15 14 14 14 14 14 14 13 12 11 10 10 9 6 4 4 4 4 4 3 5 6 5 5 5 3 3 3 2 2 2 2 1 1 1
16 15 14 9 8 9 10 11 9 9 11 12 12 13 15 16 16 15 15 14 15 14 14 12 11 11 10 8 5 4 4 3 4 4 5 5 6 5 3 4 3 3 3 3 3 3 3 2 1
15 15 12 9 9 9 11 9 9 10 11 11 11 12 13 14 16 16 16 15 15 14 13 11 11 10 9 9 8 8 7 6 5 5 4 5 5 5 4 4 4 3 2 4 4 4 2 2 2
14 12 12 11 11 11 11 11 7 9 10 11 11 12 13 14 15 16 16 15 14 14 14 12 11 10 10 9 8 7 6 5 4 5 5 5 5 5 5 5 4 4 3 4 3 3 2 1 2
13 12 11 11 11 13 12 12 6 7 9 9 11 12 12 13 14 15 15 14 13 13 13 13 12 11 11 10 9 8 7 6 6 6 6 5 4 4 5 5 4 4 3 3 3 3 3 2 1
15 11 8 9 10 12 12 11 5 8 10 10 10 11 11 11 13 14 15 15 14 13 13 13 13 12 11 11 10 9 8 7 6 6 6 6 5 5 6 6 5 4 4 4 4 3 2 3 2
16 15 11 8 9 8 8 9 5 9 10 9 9 9 10 10 12 13 14 14 14 14 12 13 13 12 12 11 10 8 7 6 6 7 6 6 4 5 7 6 6 5 5 5 4 3 4 3 3
17 16 16 11 8 6 6 6 6 8 8 8 9 9 10 9 10 11 12 12 12 12 12 13 13 12 12 11 10 9 9 8 7 7 6 5 4 5 7 8 7 6 6 5 4 3 3 3 3
17 15 11 10 8 9 7 8 6 7 7 8 9 8 8 8 9 10 10 11 10 11 11 12 12 12 11 11 10 10 9 8 6 6 7 6 6 5 6 7 6 6 6 5 4 3 4 4 3
17 17 13 9 9 9 5 4 3 5 7 8 8 9 8 9 9 10 9 8 10 11 11 11 11 11 11 10 10 8 9 8 8 7 7 7 6 6 6 6 6 6 6 5 5 5 5 5 4
16 16 15 11 9 9 5 2 1 3 5 6 7 8 7 7 8 9 9 9 9 9 11 11 10 11 11 10 9 8 8 8 8 8 7 7 6 6 7 6 6 7 6 6 5 6 5 5 5
Wind_Direction
238 242 235 247 255 259 282 81 84 82 75 63 54 67 68 56 71 94 116 117 116 116 119 118 113 110 107 105 103 100 98 98 99 101 102 101 102 103 103 103 103 103 103 103 102 100 98 97 99
254 250 243 246 259 285 97 91 83 80 84 87 70 69 73 72 88 107 117 119 119 122 124 117 117 113 110 108 105 103 100 99 100 102 103 103 105 105 105 105 105 105 104 104 103 102 100 99 101
261 261 263 248 239 231 104 96 96 97 99 90 81 66 66 86 99 112 122 124 123 122 116 118 120 116 113 111 108 105 103 101 101 102 103 104 105 107 107 108 107 107 106 106 106 105 103 103 105
255 250 250 261 265 171 117 110 105 109 104 98 93 83 75 85 106 119 129 128 124 118 118 122 122 119 116 114 112 109 107 104 102 103 104 106 106 107 109 111 110 109 108 108 108 106 105 106 109
246 258 249 265 252 132 113 106 110 111 107 98 95 93 89 92 112 126 133 130 124 120 122 125 125 122 120 117 115 113 110 107 106 106 105 106 108 110 112 112 111 110 110 109 108 107 107 108 111
250 252 260 259 234 115 105 109 117 114 107 105 105 104 99 114 123 135 134 129 124 123 124 126 128 127 124 121 119 118 114 112 111 109 109 109 108 111 114 114 115 113 112 112 111 110 109 109 111
255 268 269 267 248 125 114 111 108 111 105 105 110 110 121 130 134 137 130 129 127 125 129 135 135 133 130 127 125 122 120 117 115 114 112 112 113 116 118 117 118 117 115 115 116 115 115 116 123
254 274 277 263 236 130 124 115 103 106 103 108 114 120 140 140 142 136 133 126 124 129 136 141 142 141 140 133 130 127 126 124 122 121 122 120 120 122 125 122 121 121 121 123 126 128 129 135 154
251 265 271 268 208 136 128 129 120 123 120 106 90 115 136 142 145 141 139 132 131 134 140 147 144 151 147 141 137 136 132 131 134 134 137 140 138 132 137 119 127 129 132 136 142 146 151 162 186
234 249 259 270 271 138 133 140 141 146 138 115 102 112 131 146 151 152 153 147 145 144 146 147 149 154 150 142 141 148 146 146 159 144 158 173 141 128 120 128 135 141 146 151 163 167 175 194 194
233 243 266 281 267 144 148 155 165 162 147 134 133 136 145 153 157 160 159 155 152 148 146 145 143 145 141 133 151 149 139 148 154 149 158 157 129 125 124 141 144 156 165 177 168 186 204 201 196
235 244 259 266 239 193 177 170 171 135 131 130 138 143 152 161 164 164 161 156 153 150 148 147 139 137 135 139 140 143 144 149 148 153 162 144 137 134 137 143 161 166 174 165 168 200 170 146 147
236 246 250 255 238 214 189 196 186 140 142 134 144 153 159 166 167 166 162 157 154 154 155 147 141 135 124 116 151 150 146 148 140 151 162 152 136 127 125 128 142 154 144 157 168 94 93 72 38
240 244 241 239 230 220 214 209 196 162 145 144 153 160 167 170 169 167 164 163 161 162 157 148 145 138 136 143 161 133 140 134 143 153 150 158 126 120 123 132 140 140 146 150 146 128 112 100 78
249 248 241 231 228 218 223 222 208 170 159 160 162 165 171 170 171 172 168 167 165 163 158 153 151 148 154 161 176 155 145 150 146 135 138 150 124 123 130 139 175 171 146 136 127 136 137 192 137
238 239 239 228 218 213 221 229 192 181 178 172 170 168 170 172 175 173 166 165 164 163 159 162 163 157 163 166 180 170 156 145 132 132 139 154 126 135 144 158 173 151 143 148 137 171 162 160 136
226 228 231 225 210 207 212 231 191 193 192 183 178 173 171 172 177 171 167 169 169 162 158 165 158 158 164 164 171 181 140 134 135 139 140 153 151 155 172 156 137 173 156 165 173 135 112 104 103
218 221 224 223 206 206 209 214 197 202 200 192 181 176 172 174 175 170 168 167 167 160 159 163 160 156 159 163 165 174 159 147 146 142 141 152 164 170 182 166 159 189 160 140 94 113 126 132 242
242 241 234 226 207 205 215 214 198 205 205 194 182 175 179 180 173 168 169 169 167 160 162 166 167 162 164 169 172 175 172 164 159 161 155 165 177 175 194 179 154 190 157 151 152 151 165 205 188
247 249 244 224 208 209 224 225 208 210 205 196 187 181 177 176 173 169 170 172 169 166 166 167 171 169 173 172 172 172 165 171 171 170 159 172 178 178 188 176 177 179 159 172 174 160 162 225 173
235 240 239 227 210 216 235 241 216 217 213 197 190 183 179 177 174 172 174 177 175 173 174 175 175 173 177 169 171 172 164 178 173 161 166 181 180 186 190 169 183 170 181 171 191 184 188 204 215
233 234 239 233 230 228 225 237 214 210 216 201 192 185 183 179 174 173 176 178 179 177 176 172 173 174 175 173 182 181 182 186 181 164 170 175 183 190 186 177 181 182 191 167 196 185 190 191 213
235 236 235 234 238 246 237 242 219 194 208 207 198 189 185 181 176 175 177 178 179 178 175 175 172 176 177 183 186 187 193 187 169 161 160 170 180 198 194 181 177 186 197 179 189 157 193 205 216
233 238 242 238 241 239 239 247 219 190 196 219 208 190 183 178 173 171 175 172 177 179 175 174 172 177 180 185 189 193 195 186 173 169 164 175 178 195 201 186 178 184 196 175 176 176 189 193 202
222 221 216 222 230 239 234 241 210 178 178 198 204 184 177 173 169 171 171 171 174 179 176 172 172 178 182 186 192 195 193 187 184 180 178 183 182 188 197 191 177 183 184 177 180 181 199 191 196
215 219 219 220 226 236 241 235 210 170 171 184 180 170 165 172 167 169 168 169 174 178 176 172 174 178 182 186 190 189 187 189 193 193 190 191 190 186 180 180 178 182 183 189 180 187 196 191 203
213 222 230 241 255 244 235 230 210 169 166 169 164 161 161 164 162 163 164 167 172 175 175 175 173 177 182 185 186 188 189 196 195 187 196 189 187 186 176 178 181 182 186 185 174 202 201 176 198
221 221 230 236 254 255 228 216 205 178 181 173 166 157 152 161 161 158 159 164 169 170 169 172 172 175 180 183 188 191 192 193 190 192 195 190 187 179 170 178 179 182 182 180 183 201 197 189 205
215 218 228 238 244 253 237 211 200 185 198 183 165 153 156 165 159 154 155 163 170 169 168 170 171 173 178 184 189 188 184 187 189 196 194 187 181 175 175 177 177 181 181 182 191 210 191 196 211
218 222 223 234 242 260 264 248 181 196 212 179 150 140 144 152 147 150 156 165 170 171 171 168 171 175 178 181 184 189 187 187 191 195 192 184 181 183 181 181 182 187 188 186 192 214 200 198 209